Tri-Cities, TN

11:40 AM EST on February 24, 2018 (GMT -0500)
Tri-Cities Regional Tennessee / Virginia

Weather History for KTRI - January, 2005

Change the Weather History Date:

Tuesday, January 11, 2005

  Actual Average Record
Temperature  
Mean Temperature 46 °F 35 °F  
Max Temperature 54 °F 45 °F 69 °F (2018)
Min Temperature 37 °F 25 °F -7 °F (1978)
Degree Days  
Heating Degree Days 20 30  
Month to date heating degree days 330  
Since 1 July heating degree days 2059  
Cooling Degree Days 0 0  
Month to date cooling degree days 0  
Year to date cooling degree days 0  
Moisture  
Dew Point 46 °F    
Average Humidity 93    
Maximum Humidity 100    
Minimum Humidity 77    
Precipitation  
Precipitation 0.68 in 0.11 in 0.91 in (2012)
Month to date precipitation 1.16  
Year to date precipitation 1.16  
Snow  
Snow 0.00 in 0.10 in - ()
Month to date snowfall 1.5  
Since 1 July snowfall 4.2  
Snow Depth -    
Sea Level Pressure  
Sea Level Pressure 30.13 in    
Wind  
Wind Speed 1 mph (ENE)    
Max Wind Speed 7 mph    
Max Gust Speed -    
Visibility 5 miles    
Events Fog , Rain    
T = Trace of Precipitation, MM = Missing Value Source: NWS Daily Summary

Daily Weather History Graph

Daily Weather History Graph

Search for Another Location

Airport or City:

Trip Planner

Search our weather history database for the weather conditions in past years. The results will help you decide how hot, cold, wet, or windy it might be!

Date:

Astronomy

Jan. 11, 2005 Rise Set
Actual Time 7:41 AM EST 5:34 PM EST
Civil Twilight 7:13 AM EST 6:02 PM EST
Nautical Twilight 6:41 AM EST 6:34 PM EST
Astronomical Twilight 6:10 AM EST 7:05 PM EST
Moon 9:03 AM EST (1/11) 7:03 PM EST (1/11)
Length of Visible Light 10h 49m
Length of Day
9h 52m
New Moon, 2% of the Moon is Illuminated
Jan 11
New Moon
Jan 17
First Quarter
Jan 25
Full
Feb 2
Last Quarter
Feb 8
New

Hourly Weather History & Observations

Time (EST) Temp. Windchill Dew Point Humidity Pressure Visibility Wind Dir Wind Speed Gust Speed Precip Events Conditions
12:53 AM 41.0 °F - 39.0 °F 93% 30.18 in 5.0 mi Calm Calm - N/A   Clear
1:53 AM 39.0 °F - 37.0 °F 93% 30.18 in 4.0 mi Calm Calm - N/A   Clear
2:53 AM 39.0 °F - 37.9 °F 96% 30.19 in 5.0 mi Calm Calm - N/A   Scattered Clouds
3:53 AM 37.9 °F - 37.0 °F 97% 30.19 in 3.0 mi Calm Calm - N/A   Scattered Clouds
4:53 AM 39.0 °F 34.8 °F 37.9 °F 96% 30.17 in 4.0 mi East 5.8 mph - N/A   Scattered Clouds
5:39 AM 41.0 °F - 39.2 °F 93% 30.17 in 4.0 mi Calm Calm - N/A   Overcast
5:53 AM 41.0 °F - 39.0 °F 93% 30.17 in 6.0 mi Calm Calm - N/A   Overcast
6:15 AM 42.8 °F - 39.2 °F 87% 30.17 in 6.0 mi Calm Calm - N/A   Overcast
6:53 AM 42.1 °F - 39.9 °F 92% 30.19 in 6.0 mi Calm Calm - N/A   Overcast
7:28 AM 42.8 °F - 39.2 °F 87% 30.17 in 6.0 mi Calm Calm - N/A   Overcast
7:53 AM 42.1 °F - 39.9 °F 92% 30.19 in 10.0 mi Calm Calm - N/A   Overcast
8:53 AM 45.0 °F 43.5 °F 42.1 °F 90% 30.18 in 10.0 mi ENE 3.5 mph - N/A   Overcast
9:53 AM 46.0 °F 44.8 °F 43.0 °F 89% 30.18 in 10.0 mi ESE 3.5 mph - N/A   Overcast
10:53 AM 48.9 °F - 43.0 °F 80% 30.17 in 10.0 mi ENE 3.5 mph - N/A   Overcast
11:53 AM 50.0 °F - 44.1 °F 80% 30.15 in 10.0 mi WNW 3.5 mph - 0.00 in Rain Light Rain
12:53 PM 52.0 °F - 45.0 °F 77% 30.11 in 10.0 mi Calm Calm - 0.00 in   Overcast
1:53 PM 53.1 °F - 46.0 °F 77% 30.08 in 10.0 mi Calm Calm - 0.00 in   Overcast
2:30 PM 53.6 °F - 46.4 °F 77% 30.08 in 10.0 mi SE 4.6 mph - N/A   Overcast
2:53 PM 54.0 °F - 46.9 °F 77% 30.08 in 10.0 mi Calm Calm - N/A   Mostly Cloudy
3:39 PM 53.6 °F - 48.2 °F 82% 30.11 in 2.0 mi NW 6.9 mph - 0.05 in Rain Heavy Rain
3:53 PM 53.1 °F - 50.0 °F 89% 30.12 in 3.0 mi WNW 4.6 mph - 0.08 in Rain Light Rain
4:04 PM 51.8 °F - 51.8 °F 100% 30.11 in 2.0 mi NNW 3.5 mph - 0.03 in Rain Heavy Rain
4:44 PM 53.6 °F - 51.8 °F 94% 30.12 in 1.0 mi WNW 5.8 mph - 0.18 in Rain Heavy Rain
4:53 PM 53.1 °F - 52.0 °F 96% 30.14 in 1.5 mi WSW 5.8 mph - 0.26 in Rain Heavy Rain
5:23 PM 51.8 °F - 51.8 °F 100% 30.12 in 1.0 mi ESE 3.5 mph - 0.13 in Rain Light Rain
5:51 PM 51.8 °F - 51.8 °F 100% 30.12 in 0.8 mi SE 4.6 mph - 0.16 in Rain Light Rain
5:53 PM 52.0 °F - 51.1 °F 97% 30.12 in 0.8 mi SE 4.6 mph - 0.16 in Rain Light Rain
6:53 PM 52.0 °F - 52.0 °F 100% 30.12 in 0.5 mi South 4.6 mph - 0.15 in Fog , Rain Light Rain
7:08 PM 51.8 °F - 51.8 °F 100% 30.11 in 1.5 mi Calm Calm - 0.00 in   Overcast
7:21 PM 51.8 °F - 51.8 °F 100% 30.11 in 1.5 mi Calm Calm - 0.00 in Rain Light Rain
7:30 PM 51.8 °F - 51.8 °F 100% 30.11 in 2.0 mi Calm Calm - 0.01 in Rain Light Rain
7:53 PM 52.0 °F - 52.0 °F 100% 30.12 in 2.0 mi Calm Calm - 0.02 in Rain Light Rain
8:22 PM 51.8 °F - 51.8 °F 100% 30.10 in 3.0 mi North 3.5 mph - 0.01 in   Overcast
8:53 PM 52.0 °F - 51.1 °F 97% 30.09 in 7.0 mi Calm Calm - 0.01 in   Overcast
9:53 PM 51.8 °F - 51.8 °F 100% 30.09 in 7.0 mi Calm Calm - N/A   Overcast
10:53 PM 51.1 °F - 51.1 °F 100% 30.09 in 6.0 mi Calm Calm - N/A   Mostly Cloudy
11:46 PM 50.0 °F - 50.0 °F 100% 30.09 in 2.5 mi Calm Calm - N/A   Overcast
11:53 PM 50.0 °F - 50.0 °F 100% 30.08 in 2.5 mi Calm Calm - N/A   Overcast